Location: Recife
(8.0585°S, 34.8848°W)
Time: 19:54:18
(UTC-03:00)

A-11 Canister half - Pass Details

Date: 15 April 2026
Orbit: 1523 x 1684 km, 47.3° (Epoch: 16 May)

Event Time Altitude Azimuth Distance (km) Brightness Sun altitude
Rises 21:03:55 0° 226° (SW) 4,748 11.9 -56.5°
Reaches altitude 10° 21:06:58 10° 229° (SW) 3,781 11.2 -57.2°
Enters shadow 21:07:44 13° 230° (SW) 3,546 11.1 -57.4°
Maximum altitude 21:16:30 67° 309° (NW) 1,732 - -59.6°
Drops below altitude 10° 21:26:21 10° 30° (NNE) 3,892 - -62.0°
Sets 21:29:34 0° 33° (NNE) 4,893 - -62.8°
